www.pogodaiklimat.ru
ПОГОДА в Дугласе
Время
и дата
00:53 18.07
01:53 18.07
02:53 18.07
03:53 18.07
04:53 18.07
05:53 18.07
06:53 18.07
07:53 18.07
08:53 18.07
09:53 18.07
10:53 18.07
11:53 18.07
12:53 18.07
13:53 18.07
14:53 18.07
15:53 18.07
16:53 18.07
17:53 18.07
18:53 18.07
19:12 18.07
19:27 18.07
19:37 18.07
19:53 18.07
20:53 18.07
21:53 18.07
22:05 18.07
22:53 18.07
23:53 18.07
00:53 19.07
01:53 19.07
02:00 19.07
02:15 19.07
02:26 19.07
02:53 19.07
03:02 19.07
03:23 19.07
03:53 19.07
04:53 19.07
05:53 19.07
06:53 19.07
07:53 19.07
08:53 19.07
09:53 19.07
10:53 19.07
11:53 19.07
12:53 19.07
13:53 19.07
14:53 19.07
Ветер
(напр.,м/с)
Видим. Явления Облачность Т
(С)
Тd
(С)
f
(%)
Тe
(С)
Тes
(С)
Комфортность P
(гПа)
Po
(гПа)
Тmin
(С)
Tmax
(С)
R
(мм)
R24
(мм)
S
(см)
Ю 5 16 км ясно +18.3 +10.6 61 +18 +18 1016.5 853.3
В 3 16 км ясно +16.1 +10.6 70 +16 +16 1016.2 853.0
В 4 16 км ясно +14.4 +10.0 75 +13 +13 1016.2 852.8
В 2 16 км ясно +14.4 +10.0 75 +14 +14 1016.6 853.0
штиль 0 16 км ясно +11.7 +8.9 83 +11 +11 1017.7 853.6 +11.7 +21.1
З 2 16 км ясно +13.9 +10.6 80 +13 +13 1018.5 854.2
штиль 0 16 км ясно +18.3 +10.6 61 +19 +20 1018.2 854.2
штиль 0 16 км ясно +21.1 +10.6 51 +23 +28 комфорт 1017.9 854.2
штиль 0 16 км ясно +25.0 +10.0 39 +26 +36 жарко 1017.3 853.9
нст 2 16 км ясно +27.8 +13.3 41 +30 +41 жарко 1016.7 853.6
ЮЗ 3 16 км ясно +29.4 +14.4 40 +31 +44 жарко 1016.0 853.0 +11.1 +29.4
Ю 3 16 км ясно +30.6 +15.6 40 +33 +48 душно 1015.7 852.8
штиль 0 16 км ясно +31.7 +16.7 41 +35 +61 опасность
солнечного
удара
1014.9 852.2
нст 3 16 км ясно +33.3 +18.3 41 +38 +53 опасность
солнечного
удара
1014.5 851.9
штиль 0 16 км ясно +33.9 +18.9 41 +39 +60 опасность
солнечного
удара
1013.9 851.3
ЮЗ 3 16 км ясно +33.3 +18.9 43 +38 +48 очень
душно
1013.3 850.8
С 2 16 км 2/0 3600 m
[Ac]
+32.2 +17.8 42 +36 +43 очень
душно
1013.3 850.2 +29.4 +34.4
В 4 16 км 5/0 3000 m
[Ac]
+31.7 +17.2 42 +35 +37 очень
душно
1013.1 850.2
В 4
{8}
16 км 8/2 1650 m
[Ac]
+30.0 +16.1 43 +33 +33 душно 1013.1 850.5
В 4 16 км гроза ясно +28.3 +15.0 44 +31 +31 душно 850.8
ЮВ 6 16 км ясно +27.2 +13.9 44 +29 +29 жарко 850.8
ЮВ 7
{10}
16 км ясно +26.7 +13.3 44 +29 +29 жарко 850.8
ЮВ 6 16 км ясно +26.1 +12.2 42 +28 +28 жарко 1013.4 850.8
Ю 5 16 км ясно +23.3 +10.6 45 +25 +25 комфорт 1013.5 851.1
С 9
{14}
16 км 8/0 3600 m
[Ac]
+25.6 +11.1 40 +27 +27 жарко 1014.6 852.5
С 12
{20}
16 км слабый дождь 8/0 3600 m
[Ac As]
+21.7 +11.1 51 +24 +24 комфорт 852.5
В 8
{16}
16 км 2/2 1950 m
[Ac]
+23.9 +11.1 45 +25 +25 комфорт 1013.5 851.6 +21.7 +32.2
В 5 16 км ясно +22.8 +9.4 42 +24 +24 комфорт 1013.7 851.6
ЮЗ 3 16 км ясно +20.6 +10.6 53 +23 +23 комфорт 1014.1 851.9
С 3 16 км 5/0 3600 m
[Ac]
+20.0 +10.6 55 +22 +22 комфорт 1014.0 851.9
СЗ 3 16 км гроза 8/0 2850 m
[Ac]
+20.0 +10.6 55 +22 +22 комфорт 851.9
СЗ 2 16 км 8/0 3000 m
[Ac]
+20.0 +10.0 53 +22 +22 комфорт 851.9
С 2 16 км гроза 8/0 3000 m
[Ac]
+20.0 +10.0 53 +22 +22 комфорт 851.9
С 4 16 км 8/0 3600 m
[Ac]
+20.0 +10.0 53 +21 +21 комфорт 1013.4 851.6
С 4 16 км гроза 5/0 3600 m
[Ac]
+20.0 +10.0 53 +21 +21 комфорт 851.6
штиль 0 16 км 2/0 3300 m
[Ac]
+18.9 +10.0 56 +19 +19 851.6
С 3 16 км ясно +18.9 +10.0 56 +20 +20 1014.3 851.9
ЮЗ 3 16 км ясно +17.2 +10.0 63 +17 +17 1015.0 852.5 +16.7 +23.9
С 4 16 км ясно +18.3 +10.6 61 +18 +19 1016.5 853.6
СЗ 3 16 км ясно +22.2 +10.6 48 +24 +25 комфорт 1015.9 853.3
ЮЗ 5 16 км ясно +23.9 +11.1 45 +25 +27 комфорт 1015.7 853.0
штиль 0 16 км ясно +26.7 +13.3 44 +29 +39 жарко 1016.1 853.3
С 2 16 км ясно +28.3 +14.4 43 +31 +42 душно 1015.5 853.3
С 2 16 км ясно +30.0 +16.1 43 +33 +49 душно 1015.2 853.0 +17.2 +30.0
СЗ 2 16 км ясно +31.7 +17.8 44 +36 +54 опасность
солнечного
удара
1014.6 852.5
З 3 16 км 2/0 2700 m
[Ac]
+32.8 +18.9 44 +38 +52 опасность
солнечного
удара
1014.2 852.2
С 5 16 км 8/0 3000 m
[Ac]
+33.3 +18.9 43 +38 +43 очень
душно
1013.8 851.6
СВ 13
{20}
16 км гроза 8/0 3300 m
[Ac]
+28.9 +16.1 46 +32 +32 душно 1014.3 851.6
Местоположение метеостанции Converse County Airport: широта 42.7942 долгота -105.3819 высота над уровнем моря 1502 м.
В архиве по умолчанию представлена погода в Дугласе за последние 1-2 суток. Обновление информации о фактической погоде в базе происходит ежечасно! Архивные данные за месяц целиком и за предыдущие месяцы Вы можете получить, выбрав интересующий диапазон дат из раскрывающегося списка и нажав кнопку "Ввод!".
Внимание! Архив погоды МЕТАР в базе сайта по станциям, не включенным в климатический монитор, хранится не более 60 дней. Нет смысла пытаться выбрать более раннюю дату.
*Определитесь, кто Вы:
Внимание! Время в таблицах - местное (без учета летнего времени). Для получения всемирного времени необходимо вычесть поправку, которая равна -7 ч.
Смотрите также архив погоды в соседних городах и на ближайших метеорологических станциях:
Партнеры нашего сайта:      
Пояснения к столбцам:
  • Ветер - указаны скорость ветра в м/с - средняя за 10 мин, порывы в срок и между сроками (в фигурных скобках) и направление, откуда дует ветер: С - северный,
  • СВ - северо-восточный, В - восточный, ЮВ - юго-восточный, Ю - южный, ЮЗ - юго-западный, З - западный, СЗ - северо-западный.
  • Видимость - горизонтальная дальность видимости в метрах или километрах. При видимости от 1 до 10 км при отсутствии осадков обычно наблюдается дымка, при ухудшении видимости до 1 км и менее - туман. В сухую погоду видимость может ухудшаться дымом, пылью или мглою.
  • Явления - указаны атмосферные явления, наблюдавшиеся в срок или в последний час перед сроком; фигурными скобками обозначены явления, наблюдавшиеся между сроками (за 1-3 часа до срока); квадратными скобками обозначены град или гололедные отложения с указанием их диаметра в мм.
  • Облачность - указаны через наклонную черту общая и нижняя облачность в баллах и высота нижней границы облаков в метрах; квадратными скобками обозначены формы облаков: Ci - перистые, Cs - перисто-слоистые, Cc - перисто-кучевые, Ac - высококучевые, As - высокослоистые, Sc - слоисто-кучевые, Ns - слоисто-дождевые, Cu - кучевые, Cb - кучево-дождевые. Подробнее классификацию облаков см. в Атласе облаков (PDF).
  • T - Температура воздуха - температура, измеренная на высоте 2 м над землей.
  • Td - Температура точки росы - температура, при понижении до которой содержащийся в воздухе водяной пар достигнет насыщения.
  • f - Относительная влажность воздуха - влажноcть воздуха, измеренная на высоте 2 м над землей.
  • Te - Эффективная температура - температура, которую ощущает одетый по сезону человек в тени. Характеристика душности погоды. При расчете учитывается влияние влажности воздуха и скорости ветра на теплоощущения человека.
  • Tes - Эффективная температура на солнце - температура, которую ощущает человек, с поправкой на солнечный нагрев. Характеристика знойности погоды. Зависит от высоты солнца над горизонтом, облачности и скорости ветра. Ночью, в пасмурную погоду, а также при ветре 12 м/с и более поправка равна нулю.
  • P - Атмосферное давление - приведенное к уровню моря атмосферное давление.
  • Po - Атмосферное давление - измеренное на уровне метеостанции атмосферное давление.
  • Tmin - Минимальная температура - минимум температуры воздуха на высоте 2 м над землей.
  • Tmax - Максимальная температура - максимум температуры воздуха на высоте 2 м над землей.
  • R - Количество осадков - Количество выпавших осадков за период времени, мм. При наведении курсора мыши на число - период времени, за который выпало указанное количество осадков.
  • R24 - Количество осадков - Количество выпавших осадков за 24 часа, мм.
  • S - Снежный покров - Высота снежного покрова, см. При наведении курсора мыши на число - состояние снежного покрова и степень покрытия местности в баллах.